[Date Prev][Date Next][Thread Prev][Thread Next] - [Date Index][Thread Index][Author Index]
2 Line ISS Keps 11-5
- Subject: [sarex] 2 Line ISS Keps 11-5
- From: "Dave Larsen Ph.D." <doc@xxxxxxxxxxx>
- Date: Tue, 5 Nov 2002 01:57:49 -0800
ISS
1 25544U 98067A 02309.18024495 .00047307 00000-0 61782-3 0 3382
2 25544 51.6384 65.0399 0014446 105.1552 325.4065 15.58063940225969
----
Via the sarex mailing list at AMSAT.ORG courtesy of AMSAT-NA.
To unsubscribe, send "unsubscribe sarex" to Majordomo@amsat.org
AMSAT Home